Time,TemperatureF,DewpointF,PressureIn,WindDirection,WindDirectionDegrees,WindSpeedMPH,WindSpeedGustMPH,Humidity,HourlyPrecipIn,Conditions,Clouds,dailyrainin,SolarRadiationWatts/m^2,SoftwareType,DateUTC
2013-01-09 00:03:00,45.0,44.0,-100.00,SSW,201,3.0,5.0,97,0.00,,,0.00,0.000000,,2013-01-09 05:03:00,
2013-01-09 00:33:00,46.0,45.0,-100.00,SSW,205,4.0,7.0,98,0.00,,,0.00,0.000000,,2013-01-09 05:33:00,
2013-01-09 00:43:00,46.0,45.0,-100.00,SSW,205,4.0,7.0,98,0.00,,,0.00,0.000000,,2013-01-09 05:43:00,
2013-01-09 00:53:00,46.0,45.0,-100.00,SSW,205,4.0,7.0,98,0.00,,,0.00,0.000000,,2013-01-09 05:53:00,
2013-01-09 01:02:00,46.0,45.0,-100.00,SSW,205,4.0,7.0,98,0.00,,,0.00,0.000000,,2013-01-09 06:02:00,
2013-01-09 01:32:00,47.0,46.0,-100.00,SSW,206,4.0,7.0,98,0.00,,,0.00,0.000000,,2013-01-09 06:32:00,
2013-01-09 01:42:00,47.0,46.0,-100.00,SSW,206,4.0,7.0,98,0.00,,,0.00,0.000000,,2013-01-09 06:42:00,
2013-01-09 01:53:00,47.0,46.0,-100.00,SSW,206,4.0,7.0,98,0.00,,,0.00,0.000000,,2013-01-09 06:53:00,
2013-01-09 02:02:00,47.0,46.0,-100.00,SSW,206,4.0,7.0,98,0.00,,,0.00,0.000000,,2013-01-09 07:02:00,
2013-01-09 02:32:00,47.0,46.0,-100.00,SSW,194,4.0,7.0,98,0.00,,,0.00,0.000000,,2013-01-09 07:32:00,
2013-01-09 02:42:00,47.0,46.0,-100.00,SSW,194,4.0,7.0,98,0.00,,,0.00,0.000000,,2013-01-09 07:42:00,
2013-01-09 02:52:00,47.0,46.0,-100.00,SSW,194,4.0,7.0,98,0.00,,,0.00,0.000000,,2013-01-09 07:52:00,
2013-01-09 03:02:00,47.0,46.0,-100.00,SSW,194,4.0,7.0,98,0.00,,,0.00,0.000000,,2013-01-09 08:02:00,
2013-01-09 03:32:00,47.0,47.0,-100.00,SSW,202,4.0,7.0,99,0.00,,,0.00,0.000000,,2013-01-09 08:32:00,
2013-01-09 03:43:00,47.0,47.0,-100.00,SSW,202,4.0,7.0,99,0.00,,,0.00,0.000000,,2013-01-09 08:43:00,
2013-01-09 03:53:00,47.0,47.0,-100.00,SSW,202,4.0,7.0,99,0.00,,,0.00,0.000000,,2013-01-09 08:53:00,
2013-01-09 04:02:00,47.0,47.0,-100.00,SSW,202,4.0,7.0,99,0.00,,,0.00,0.000000,,2013-01-09 09:02:00,
2013-01-09 04:32:00,47.0,47.0,-100.00,SSW,210,3.0,6.0,99,0.00,,,0.00,0.000000,,2013-01-09 09:32:00,
2013-01-09 04:42:00,47.0,47.0,-100.00,SSW,210,3.0,6.0,99,0.00,,,0.00,0.000000,,2013-01-09 09:42:00,
2013-01-09 04:53:00,47.0,47.0,-100.00,SSW,210,3.0,6.0,99,0.00,,,0.00,0.000000,,2013-01-09 09:53:00,
2013-01-09 05:02:00,47.0,47.0,-100.00,SSW,210,3.0,6.0,99,0.00,,,0.00,0.000000,,2013-01-09 10:02:00,
2013-01-09 05:32:00,48.0,48.0,-100.00,SSW,204,4.0,7.0,99,0.00,,,0.00,0.000000,,2013-01-09 10:32:00,
2013-01-09 05:42:00,48.0,48.0,-100.00,SSW,204,4.0,7.0,99,0.00,,,0.00,0.000000,,2013-01-09 10:42:00,
2013-01-09 05:52:00,48.0,48.0,-100.00,SSW,204,4.0,7.0,99,0.00,,,0.00,0.000000,,2013-01-09 10:52:00,
2013-01-09 06:02:00,48.0,48.0,-100.00,SSW,204,4.0,7.0,99,0.00,,,0.00,0.000000,,2013-01-09 11:02:00,
2013-01-09 06:33:00,48.0,48.0,-100.00,SSW,198,3.0,7.0,99,0.00,,,0.00,0.000000,,2013-01-09 11:33:00,
2013-01-09 06:43:00,48.0,48.0,-100.00,SSW,198,3.0,7.0,99,0.00,,,0.00,0.000000,,2013-01-09 11:43:00,
2013-01-09 06:53:00,48.0,48.0,-100.00,SSW,198,3.0,7.0,99,0.00,,,0.00,0.000000,,2013-01-09 11:53:00,
2013-01-09 07:03:00,48.0,48.0,-100.00,SSW,198,3.0,7.0,99,0.00,,,0.00,0.000000,,2013-01-09 12:03:00,
2013-01-09 07:33:00,48.0,48.0,-100.00,SSW,198,1.0,5.0,99,0.00,,,0.00,0.000000,,2013-01-09 12:33:00,
2013-01-09 07:43:00,48.0,48.0,-100.00,SSW,198,1.0,5.0,99,0.00,,,0.00,0.000000,,2013-01-09 12:43:00,
2013-01-09 07:53:00,48.0,48.0,-100.00,SSW,198,1.0,5.0,99,0.00,,,0.00,0.000000,,2013-01-09 12:53:00,
2013-01-09 08:03:00,48.0,48.0,-100.00,SSW,198,1.0,5.0,99,0.00,,,0.00,0.000000,,2013-01-09 13:03:00,
2013-01-09 08:33:00,49.0,49.0,-100.00,SW,226,3.0,5.0,99,0.00,,,0.00,2.000000,,2013-01-09 13:33:00,
2013-01-09 08:43:00,49.0,49.0,-100.00,SW,226,3.0,5.0,99,0.00,,,0.00,2.000000,,2013-01-09 13:43:00,
2013-01-09 08:53:00,49.0,49.0,-100.00,SW,226,3.0,5.0,99,0.00,,,0.00,2.000000,,2013-01-09 13:53:00,
2013-01-09 09:03:00,49.0,49.0,-100.00,SW,226,3.0,5.0,99,0.00,,,0.00,2.000000,,2013-01-09 14:03:00,
2013-01-09 09:33:00,50.0,50.0,-100.00,South,184,4.0,6.0,99,0.00,,,0.00,34.000000,,2013-01-09 14:33:00,
2013-01-09 09:43:00,50.0,50.0,-100.00,South,184,4.0,6.0,99,0.00,,,0.00,34.000000,,2013-01-09 14:43:00,
2013-01-09 09:53:00,50.0,50.0,-100.00,South,184,4.0,6.0,99,0.00,,,0.00,34.000000,,2013-01-09 14:53:00,
2013-01-09 10:03:00,50.0,50.0,-100.00,South,184,4.0,6.0,99,0.00,,,0.00,34.000000,,2013-01-09 15:03:00,
2013-01-09 10:33:00,50.0,50.0,-100.00,SSW,204,3.0,6.0,99,0.00,,,0.00,26.000000,,2013-01-09 15:33:00,
2013-01-09 10:43:00,50.0,50.0,-100.00,SSW,204,3.0,6.0,99,0.00,,,0.00,26.000000,,2013-01-09 15:43:00,
2013-01-09 10:53:00,50.0,50.0,-100.00,SSW,204,3.0,6.0,99,0.00,,,0.00,26.000000,,2013-01-09 15:53:00,
2013-01-09 11:03:00,50.0,50.0,-100.00,SSW,204,3.0,6.0,99,0.00,,,0.00,26.000000,,2013-01-09 16:03:00,
2013-01-09 11:34:00,50.0,50.0,-100.00,ESE,121,3.0,6.0,99,0.00,,,0.00,34.000000,,2013-01-09 16:34:00,
2013-01-09 11:43:00,50.0,50.0,-100.00,ESE,121,3.0,6.0,99,0.00,,,0.00,34.000000,,2013-01-09 16:43:00,
2013-01-09 11:53:00,50.0,50.0,-100.00,ESE,121,3.0,6.0,99,0.00,,,0.00,34.000000,,2013-01-09 16:53:00,
2013-01-09 12:03:00,50.0,50.0,-100.00,ESE,121,3.0,6.0,99,0.00,,,0.00,34.000000,,2013-01-09 17:03:00,
2013-01-09 12:33:00,51.0,51.0,-100.00,SW,218,3.0,6.0,99,0.00,,,0.00,45.000000,,2013-01-09 17:33:00,
2013-01-09 12:43:00,51.0,51.0,-100.00,SW,218,3.0,6.0,99,0.00,,,0.00,45.000000,,2013-01-09 17:43:00,
2013-01-09 12:53:00,51.0,51.0,-100.00,SW,218,3.0,6.0,99,0.00,,,0.00,45.000000,,2013-01-09 17:53:00,
2013-01-09 13:03:00,51.0,51.0,-100.00,SW,218,3.0,6.0,99,0.00,,,0.00,45.000000,,2013-01-09 18:03:00,
2013-01-09 13:33:00,51.0,51.0,-100.00,SW,224,3.0,5.0,99,0.00,,,0.00,42.000000,,2013-01-09 18:33:00,
2013-01-09 13:43:00,51.0,51.0,-100.00,SW,224,3.0,5.0,99,0.00,,,0.00,42.000000,,2013-01-09 18:43:00,
2013-01-09 13:53:00,51.0,51.0,-100.00,SW,224,3.0,5.0,99,0.00,,,0.00,42.000000,,2013-01-09 18:53:00,
2013-01-09 14:03:00,51.0,51.0,-100.00,SW,224,3.0,5.0,99,0.00,,,0.00,42.000000,,2013-01-09 19:03:00,
2013-01-09 15:33:00,52.0,52.0,-100.00,SW,232,3.0,7.0,99,-99.99,,,0.00,76.000000,,2013-01-09 20:33:00,
2013-01-09 15:43:00,52.0,52.0,-100.00,SW,232,3.0,7.0,99,-99.99,,,0.00,76.000000,,2013-01-09 20:43:00,
2013-01-09 15:53:00,52.0,52.0,-100.00,SW,232,3.0,7.0,99,-99.99,,,0.00,76.000000,,2013-01-09 20:53:00,
2013-01-09 16:04:00,52.0,52.0,-100.00,SW,232,3.0,7.0,99,-99.99,,,0.00,76.000000,,2013-01-09 21:04:00,
2013-01-09 16:33:00,51.0,51.0,-100.00,SW,224,3.0,5.0,99,0.00,,,0.00,45.000000,,2013-01-09 21:33:00,
2013-01-09 16:43:00,51.0,51.0,-100.00,SW,224,3.0,5.0,99,0.00,,,0.00,45.000000,,2013-01-09 21:43:00,
2013-01-09 16:53:00,51.0,51.0,-100.00,SW,224,3.0,5.0,99,0.00,,,0.00,45.000000,,2013-01-09 21:53:00,
2013-01-09 17:03:00,51.0,51.0,-100.00,SW,224,3.0,5.0,99,0.00,,,0.00,45.000000,,2013-01-09 22:03:00,
2013-01-09 17:33:00,51.0,51.0,-100.00,ENE,73,1.0,6.0,99,0.00,,,0.00,43.000000,,2013-01-09 22:33:00,
2013-01-09 17:43:00,51.0,51.0,-100.00,ENE,73,1.0,6.0,99,0.00,,,0.00,43.000000,,2013-01-09 22:43:00,
2013-01-09 17:53:00,51.0,51.0,-100.00,ENE,73,1.0,6.0,99,0.00,,,0.00,43.000000,,2013-01-09 22:53:00,
2013-01-09 18:03:00,51.0,51.0,-100.00,ENE,73,1.0,6.0,99,0.00,,,0.00,43.000000,,2013-01-09 23:03:00,
2013-01-09 18:33:00,51.0,51.0,-100.00,West,266,3.0,4.0,99,0.00,,,0.00,7.000000,,2013-01-09 23:33:00,
2013-01-09 18:43:00,51.0,51.0,-100.00,West,266,3.0,4.0,99,0.00,,,0.00,7.000000,,2013-01-09 23:43:00,
2013-01-09 18:53:00,51.0,51.0,-100.00,West,266,3.0,4.0,99,0.00,,,0.00,7.000000,,2013-01-09 23:53:00,
2013-01-09 19:03:00,51.0,51.0,-100.00,West,266,3.0,4.0,99,0.00,,,0.00,7.000000,,2013-01-10 00:03:00,
2013-01-09 19:33:00,51.0,50.0,-100.00,South,170,1.0,4.0,98,0.00,,,0.00,0.000000,,2013-01-10 00:33:00,
2013-01-09 19:43:00,51.0,50.0,-100.00,South,170,1.0,4.0,98,0.00,,,0.00,0.000000,,2013-01-10 00:43:00,
2013-01-09 19:53:00,51.0,50.0,-100.00,South,170,1.0,4.0,98,0.00,,,0.00,0.000000,,2013-01-10 00:53:00,
2013-01-09 20:03:00,51.0,50.0,-100.00,South,170,1.0,4.0,98,0.00,,,0.00,0.000000,,2013-01-10 01:03:00,
2013-01-09 20:33:00,52.0,49.0,-100.00,South,181,3.0,4.0,91,0.00,,,0.00,0.000000,,2013-01-10 01:33:00,
2013-01-09 20:43:00,52.0,49.0,-100.00,South,181,3.0,4.0,91,0.00,,,0.00,0.000000,,2013-01-10 01:43:00,
2013-01-09 20:53:00,52.0,49.0,-100.00,South,181,3.0,4.0,91,0.00,,,0.00,0.000000,,2013-01-10 01:53:00,
2013-01-09 21:03:00,52.0,49.0,-100.00,South,181,3.0,4.0,91,0.00,,,0.00,0.000000,,2013-01-10 02:03:00,
2013-01-09 21:33:00,52.0,49.0,-100.00,ENE,65,0.0,4.0,91,0.00,,,0.00,0.000000,,2013-01-10 02:33:00,
2013-01-09 21:43:00,52.0,49.0,-100.00,ENE,65,0.0,4.0,91,0.00,,,0.00,0.000000,,2013-01-10 02:43:00,
2013-01-09 21:53:00,52.0,49.0,-100.00,ENE,65,0.0,4.0,91,0.00,,,0.00,0.000000,,2013-01-10 02:53:00,
2013-01-09 22:03:00,52.0,49.0,-100.00,ENE,65,0.0,4.0,91,0.00,,,0.00,0.000000,,2013-01-10 03:03:00,
2013-01-09 22:33:00,51.0,49.0,-100.00,South,186,0.0,0.0,93,0.00,,,0.00,0.000000,,2013-01-10 03:33:00,
2013-01-09 22:43:00,51.0,49.0,-100.00,South,186,0.0,0.0,93,0.00,,,0.00,0.000000,,2013-01-10 03:43:00,
2013-01-09 22:53:00,51.0,49.0,-100.00,South,186,0.0,0.0,93,0.00,,,0.00,0.000000,,2013-01-10 03:53:00,
2013-01-09 23:02:00,51.0,49.0,-100.00,South,186,0.0,0.0,93,0.00,,,0.00,0.000000,,2013-01-10 04:02:00,
2013-01-09 23:32:00,51.0,47.0,-100.00,East,83,4.0,5.0,87,0.00,,,0.00,0.000000,,2013-01-10 04:32:00,
2013-01-09 23:43:00,51.0,47.0,-100.00,East,83,4.0,5.0,87,0.00,,,0.00,0.000000,,2013-01-10 04:43:00,
2013-01-09 23:53:00,51.0,47.0,-100.00,East,83,4.0,5.0,87,0.00,,,0.00,0.000000,,2013-01-10 04:53:00,